彩虹-1M 3星 (RADUGA-1M 3)

导读 | 豆包AI

RADUGA 1M-3是独联体(CIS)发射的军用通信卫星,于2013年11月11日08:00发射入轨,属于俄罗斯“彩虹”(Raduga)系列第二代改进型通信卫星,主要为独联体区域提供战略军事通信服务,支持固定与移动终端的保密通信,保障军事指挥、政务通信等关键需求,延续了Raduga系列卫星长寿命、高可靠性的设计特点,是俄罗斯天基通信网络的重要组成部分。

基本信息
目录编号:
39375
目录名称:
RADUGA 1M-3
国际标识:
2013-062A
轨道中心:
EARTH
卫星名称:
彩虹-1M 3星
卫星全名:
彩虹-1M 3星 (RADUGA-1M 3)
卫星状态:
在轨 (已飞行4527 天)
发射日期:
2013-11-11 UTC
国别 :
俄罗斯(独联体) (CIS)
星等 :
--
轨道信息
数据来源 国际轨道数据 AOE轨道数据
星历时间 2026-04-03T22:42:19+0800
12小时前
查看轨道信息
2026-04-03T05:00:00+0800
1天前
查看轨道信息
半长轴 42164.588km 42164.055km
偏心率 0.0000561 0.0000573
轨道倾角 5.772° 5.770°
近地点辐角 275.848° 266.125°
升交点赤经 73.289° 73.298°
平近点角 98.391° 201.803°
近地点 35784.085km 35783.501km
远地点 35788.817km 35788.335km
周期 1436.090分钟 1436.062分钟
每日圈数 1.002723 1.002742
详细信息
平衡模式:
三轴稳定
覆盖范围:
全球
运营商:
俄罗斯国家航天集团
运营商所在国:
俄罗斯
制造商(研发单位):
列舍特涅夫卫星信息系统
制造商所在国:
俄罗斯
使用方式:
暂无
卫星简介
彩虹卫星(Raduga, Gran)是苏联用于军事和通信目的的一系列地球静止通信卫星。彩虹卫星旨在支持军事通信、Orbita地面电视网络,并在整个东半球(极地地区除外)提供电话和电报通信。该卫星仍在工作。
2D轨道图
3D轨道图
轨道高度分析图
轨道倾角分析图
轨道综合分析图
查看轨道综合分析图